NC4TP Weather Reports


time (UTC)temp
C
wind
direction
speed
KPH
gust
KPH
rain 1hr
cm
rain 24hr
cm
rain mn
cm
humidity
%
barometer
mb
20260507083837 4 244 0.0 0.0 0.00 0.03 0.00 92 1014.3
20260507083337 4 244 0.0 0.0 0.00 0.03 0.00 92 1014.3
20260507082836 4 244 0.0 0.0 0.00 0.03 0.00 92 1014.2
20260507082337 4 244 0.0 0.0 0.00 0.03 0.00 92 1014.2
20260507081840 5 244 0.0 0.0 0.00 0.03 0.00 92 1014.2
20260507081417 5 244 0.0 0.0 0.00 0.03 0.00 92 1014.2
20260507080855 5 244 0.0 0.0 0.00 0.03 0.00 92 1014.2
20260507080417 5 244 0.0 0.0 0.00 0.03 0.00 92 1014.2
20260507075855 5 244 0.0 0.0 0.00 0.23 0.00 92 1014.2
20260507075356 5 244 0.0 0.0 0.00 0.23 0.00 92 1014.2
20260507074837 5 244 0.0 0.0 0.00 0.23 0.00 92 1014.2
20260507074357 5 244 0.0 0.0 0.00 0.23 0.00 92 1014.2
20260507073858 5 244 0.0 0.0 0.00 0.23 0.00 92 1014.2
20260507073338 5 244 0.0 0.0 0.00 0.23 0.00 92 1014.2
20260507072839 5 244 0.0 0.0 0.00 0.23 0.00 92 1014.2
20260507072357 5 244 0.0 0.0 0.00 0.23 0.00 92 1014.2
20260507071839 5 244 0.0 0.0 0.00 0.23 0.00 92 1014.2
20260507071342 5 244 0.0 0.0 0.00 0.23 0.00 92 1014.2
20260507070845 5 244 0.0 0.0 0.00 0.23 0.00 91 1014.3
20260507070345 5 244 0.0 0.0 0.00 0.23 0.00 91 1014.2
20260507065843 5 244 0.0 0.0 0.00 0.41 0.00 91 1014.2
20260507065346 5 244 0.0 0.0 0.00 0.41 0.00 91 1014.3
20260507064848 5 244 0.0 0.0 0.00 0.41 0.00 91 1014.3
20260507064349 5 244 0.0 0.0 0.00 0.41 0.00 91 1014.4
20260507063852 5 244 0.0 0.0 0.00 0.41 0.00 91 1014.4
20260507063354 5 244 0.0 0.0 0.00 0.41 0.00 91 1014.4
20260507062847 5 244 0.0 0.0 0.00 0.41 0.00 91 1014.4
20260507062350 5 244 0.0 0.0 0.00 0.41 0.00 91 1014.4
20260507061851 5 244 0.0 0.0 0.00 0.41 0.00 91 1014.4
20260507061353 5 244 0.0 0.0 0.00 0.41 0.00 91 1014.3
20260507060853 5 244 0.0 0.0 0.00 0.41 0.00 91 1014.4
20260507060355 6 244 0.0 0.0 0.00 0.41 0.00 90 1014.4
20260507055854 6 244 0.0 0.0 0.00 0.89 0.00 90 1014.5
20260507055355 6 244 0.0 0.0 0.00 0.89 0.00 90 1014.4
20260507054836 6 244 0.0 0.0 0.00 0.89 0.00 90 1014.4
20260507054358 6 244 0.0 0.0 0.00 0.89 0.00 90 1014.5
20260507053841 6 244 0.0 0.0 0.00 0.89 0.00 90 1014.5
20260507053359 6 244 0.0 0.0 0.00 0.89 0.00 90 1014.5
20260507052839 6 244 0.0 0.0 0.00 0.89 0.00 90 1014.5
20260507052340 6 244 0.0 0.0 0.00 0.89 0.00 90 1014.4
20260507051844 6 244 0.0 0.0 0.00 0.89 0.00 90 1014.5
20260507051344 6 244 0.0 0.0 0.00 0.89 0.00 90 1014.5
20260507050846 6 244 0.0 0.0 0.00 0.89 0.00 90 1014.6
20260507050348 6 244 0.0 0.0 0.00 0.89 0.00 90 1014.6
20260507045849 6 244 0.0 0.0 0.00 1.27 0.00 90 1014.7
20260507045349 7 244 0.0 0.0 0.00 1.27 0.00 90 1014.7
20260507044850 7 244 0.0 0.0 0.00 1.27 0.00 90 1014.7
20260507044354 7 244 0.0 0.0 0.00 1.27 0.00 90 1014.7
20260507043915 7 244 0.0 0.0 0.00 1.27 0.00 90 1014.6
20260507043335 7 244 0.0 0.0 0.00 1.27 0.00 90 1014.5
20260507042851 7 244 0.0 0.0 0.00 1.27 0.00 90 1014.4
20260507042353 7 244 0.0 0.0 0.00 1.27 0.00 90 1014.4
20260507041854 7 244 0.0 0.0 0.00 1.27 0.00 90 1014.5
20260507041334 7 244 0.0 0.0 0.00 1.27 0.00 90 1014.5
20260507040836 7 244 0.0 0.0 0.00 1.27 0.00 89 1014.5
20260507040338 7 244 0.0 0.0 0.00 1.27 0.00 89 1014.5
20260507035837 7 244 0.0 0.0 0.00 1.40 1.27 89 1014.4
20260507035340 7 244 0.0 0.0 0.00 1.40 1.27 89 1014.4
20260507034843 7 244 0.0 0.0 0.00 1.40 1.27 88 1014.4
20260507034346 7 244 0.0 0.0 0.00 1.40 1.27 88 1014.5
20260507033847 7 244 0.0 0.0 0.00 1.40 1.27 88 1014.5
20260507033408 7 244 0.0 0.0 0.00 1.40 1.27 87 1014.4
20260507032841 8 244 0.0 0.0 0.00 1.40 1.27 87 1014.4
20260507032343 8 244 0.0 0.0 0.00 1.40 1.27 87 1014.4
20260507031846 8 244 0.0 0.0 0.00 1.40 1.27 87 1014.4
20260507031347 8 244 0.0 0.0 0.00 1.40 1.27 87 1014.5
20260507030848 8 244 0.0 0.0 0.00 1.40 1.27 86 1014.5
20260507030350 8 244 0.0 0.0 0.00 1.40 1.27 86 1014.5
20260507025849 8 244 0.0 0.0 0.00 1.57 1.27 86 1014.6
20260507025350 8 244 0.0 0.0 0.00 1.57 1.27 86 1014.6
20260507024851 8 244 0.0 0.0 0.00 1.57 1.27 86 1014.6
20260507024355 8 244 0.0 0.0 0.00 1.57 1.27 85 1014.6
20260507023915 8 244 0.0 0.0 0.00 1.57 1.27 85 1014.5
20260507023334 9 244 0.0 0.0 0.00 1.57 1.27 85 1014.5
20260507022851 9 244 0.0 0.0 0.00 1.57 1.27 85 1014.6
20260507022350 9 244 0.0 0.0 0.00 1.57 1.27 85 1014.5
20260507021852 9 244 0.0 0.0 0.00 1.57 1.27 84 1014.5
20260507021354 9 244 0.0 0.0 0.00 1.57 1.27 84 1014.5
20260507020852 10 244 0.0 0.0 0.00 1.57 1.27 84 1014.3
20260507020355 10 244 0.0 0.0 0.00 1.57 1.27 83 1014.2
20260507015913 10 244 0.0 0.0 0.00 1.85 1.27 83 1014.2
20260507015354 10 244 0.0 0.0 0.00 1.85 1.27 83 1014.2
20260507014851 10 244 0.0 0.0 0.00 1.85 1.27 83 1014.1
20260507014353 10 244 0.0 0.0 0.00 1.85 1.27 82 1014.0
20260507013914 10 244 0.0 0.0 0.00 1.85 1.27 82 1014.0
20260507013347 10 244 0.0 0.0 0.00 1.85 1.27 81 1013.9
20260507012907 10 244 0.0 0.0 0.00 1.85 1.27 81 1013.9
20260507012347 11 244 0.0 0.0 0.00 1.85 1.27 81 1013.9
20260507011848 11 244 0.0 0.0 0.00 1.85 1.27 80 1013.7
20260507011351 11 244 0.0 0.0 0.00 1.85 1.27 80 1013.9
20260507010850 11 244 0.0 0.0 0.00 1.85 1.27 79 1013.8
20260507010411 11 244 0.0 0.0 0.00 1.85 1.27 79 1013.8
20260507005848 11 244 0.0 0.0 0.00 2.03 1.27 80 1013.8
20260507005350 12 244 0.0 0.0 0.00 2.03 1.27 79 1013.8
20260507004852 12 244 0.0 0.0 0.00 2.03 1.27 79 1013.9
20260507004410 12 244 0.0 0.0 0.00 2.03 1.27 78 1013.7
20260507003850 12 244 0.0 0.0 0.00 2.03 1.27 77 1013.8
20260507003412 12 244 0.0 0.0 0.00 2.03 1.27 76 1013.7
20260507002852 12 244 0.0 0.0 0.00 2.03 1.27 75 1013.5
20260507002334 13 244 0.0 0.0 0.00 2.03 1.27 75 1013.5
20260507001836 13 244 0.0 0.0 0.00 2.03 1.27 73 1013.5
20260507001358 13 244 0.0 0.0 0.00 2.03 1.27 73 1013.3
20260507000837 13 244 0.0 0.0 0.00 2.03 1.27 72 1013.2
20260507000340 13 244 0.0 0.0 0.00 2.03 1.27 71 1013.2
20260506235838 13 244 0.0 0.0 0.00 2.13 1.27 73 1013.2
20260506235342 13 244 0.0 0.0 0.00 2.13 1.27 69 1013.1
20260506234838 14 244 0.0 0.0 0.00 2.13 1.27 74 1013.2
20260506234342 14 244 0.0 0.0 0.00 2.13 1.27 73 1013.2
20260506233903 14 244 0.0 0.0 0.00 2.13 1.27 72 1013.2
20260506233344 14 244 0.0 0.0 0.00 2.13 1.27 68 1013.1
20260506232843 14 244 0.0 0.0 0.00 2.13 1.27 64 1013.1
20260506232407 15 244 0.0 0.0 0.00 2.13 1.27 68 1013.0
20260506231850 15 244 0.0 0.0 0.00 2.13 1.27 63 1012.9
20260506231413 15 244 0.0 0.0 0.00 2.13 1.27 64 1012.9
20260506230855 15 244 0.0 0.0 0.00 2.13 1.27 63 1013.0
20260506230335 15 244 0.0 1.6 0.00 2.13 1.27 66 1013.0
20260506225851 14 253 0.0 1.6 0.00 2.18 1.27 67 1013.1
20260506225352 14 186 0.0 0.0 0.00 2.18 1.27 65 1013.1
20260506224836 14 269 0.0 0.0 0.00 2.18 1.27 66 1013.0
20260506224338 14 269 0.0 0.0 0.00 2.18 1.27 65 1013.1
20260506223842 14 269 0.0 0.0 0.00 2.18 1.27 68 1013.2
20260506223404 14 269 0.0 0.0 0.00 2.18 1.27 67 1013.3
20260506222840 14 269 0.0 0.0 0.00 2.18 1.27 66 1013.2
20260506222404 15 269 0.0 0.0 0.00 2.18 1.27 66 1013.4
20260506221906 15 269 0.0 0.0 0.00 2.18 1.27 66 1013.3
20260506221347 15 269 0.0 0.0 0.00 2.18 1.27 61 1013.3
20260506220849 15 269 0.0 1.6 0.00 2.18 1.27 60 1013.3
20260506220346 15 274 0.0 1.6 0.00 2.18 1.27 60 1013.5
20260506215846 15 314 0.0 0.0 0.00 2.29 1.27 61 1013.4
20260506215407 15 314 0.0 0.0 0.00 2.29 1.27 65 1013.4
20260506214847 15 322 0.0 0.0 0.00 2.29 1.27 61 1013.3
20260506214349 15 181 0.0 0.0 0.00 2.29 1.27 63 1013.3
20260506213851 15 181 0.0 0.0 0.00 2.29 1.27 66 1013.2
20260506213351 15 250 0.0 0.0 0.00 2.29 1.27 58 1013.2
20260506212849 15 261 0.0 0.0 0.00 2.29 1.27 60 1013.2
20260506212351 15 355 0.0 0.0 0.00 2.29 1.27 62 1013.2
20260506211853 15 346 0.0 0.0 0.00 2.29 1.27 60 1013.1
20260506211355 15 346 0.0 0.0 0.00 2.29 1.27 57 1012.9
20260506210836 15 346 0.0 0.0 0.00 2.29 1.27 59 1013.0
20260506210339 15 346 0.0 0.0 0.00 2.29 1.27 61 1012.9
20260506205854 15 346 0.0 0.0 0.00 2.39 1.27 61 1012.8
20260506205335 15 346 0.0 0.0 0.00 2.39 1.27 58 1012.9
20260506204858 15 346 0.0 0.0 0.00 2.39 1.27 60 1012.9
20260506204339 15 346 0.0 0.0 0.00 2.39 1.27 63 1012.9
20260506203840 15 346 0.0 0.0 0.00 2.39 1.27 60 1012.9
20260506203342 15 346 0.0 0.0 0.00 2.39 1.27 59 1012.9
20260506202842 15 346 0.0 0.0 0.00 2.39 1.27 56 1013.0
20260506202342 15 346 0.0 0.0 0.00 2.39 1.27 57 1013.0
20260506201843 15 346 0.0 0.0 0.00 2.39 1.27 58 1012.9
20260506201344 15 346 0.0 0.0 0.00 2.39 1.27 58 1012.9
20260506200846 15 346 0.0 1.6 0.00 2.39 1.27 58 1013.0
20260506200348 16 346 0.0 0.0 0.00 2.39 1.27 56 1013.0
20260506195843 16 346 0.0 0.0 0.00 2.69 1.27 60 1013.0
20260506195344 16 347 0.0 0.0 0.00 2.69 1.27 58 1013.0
20260506194845 16 347 0.0 0.0 0.00 2.69 1.27 52 1012.8
20260506194346 16 347 0.0 0.0 0.00 2.69 1.27 54 1012.8
20260506193848 16 355 0.0 0.0 0.00 2.69 1.27 52 1012.9
20260506193350 16 268 0.0 0.0 0.00 2.69 1.27 58 1012.8
20260506192908 16 244 0.0 0.0 0.00 2.69 1.27 54 1012.7
20260506192350 16 275 0.0 0.0 0.00 2.69 1.27 55 1012.5
20260506191851 16 281 0.0 1.6 0.00 2.69 1.27 56 1012.5
20260506191352 16 336 0.0 1.6 0.00 2.69 1.27 55 1012.5
20260506190853 16 293 0.0 0.0 0.00 2.69 1.27 58 1012.7
20260506190352 16 11 0.0 0.0 0.00 2.69 1.27 56 1012.7
20260506185851 16 324 0.0 0.0 0.00 2.69 1.27 56 1012.6
20260506185352 16 324 0.0 0.0 0.00 2.69 1.27 53 1012.7
20260506184853 16 325 0.0 0.0 0.00 2.69 1.27 59 1012.8
20260506184416 16 325 0.0 0.0 0.00 2.69 1.27 55 1012.7
20260506183916 16 325 0.0 0.0 0.00 2.69 1.27 52 1012.5
20260506183336 17 266 0.0 0.0 0.00 2.69 1.27 56 1012.5
20260506182835 17 266 0.0 0.0 0.00 2.69 1.27 58 1012.5
20260506182357 17 266 0.0 0.0 0.00 2.69 1.27 55 1012.4
20260506181838 17 9 0.0 0.0 0.00 2.69 1.27 53 1012.4
20260506181357 17 241 0.0 0.0 0.00 2.69 1.27 53 1012.6
20260506180837 17 250 0.0 0.0 0.00 2.69 1.27 53 1012.6
20260506180340 17 32 0.0 0.0 0.00 2.69 1.27 51 1012.5
20260506175838 17 360 0.0 0.0 0.00 2.69 1.27 52 1012.5
20260506175340 17 5 0.0 0.0 0.00 2.69 1.27 53 1012.7
20260506174842 17 340 0.0 0.0 0.00 2.69 1.27 56 1012.8
20260506174348 17 344 0.0 1.6 0.00 2.69 1.27 58 1012.9
20260506173849 17 101 0.0 1.6 0.00 2.69 1.27 58 1012.9
20260506173413 17 205 0.0 1.6 0.00 2.69 1.27 56 1013.0
20260506172850 17 271 0.0 0.0 0.00 2.69 1.27 56 1012.9
20260506172352 17 5 0.0 0.0 0.00 2.69 1.27 58 1012.8
20260506171853 17 313 0.0 0.0 0.00 2.69 1.27 55 1013.0
20260506171349 16 273 0.0 0.0 0.00 2.69 1.27 60 1013.0
20260506170850 16 236 0.0 0.0 0.00 2.69 1.27 58 1012.9
20260506170351 16 306 0.0 0.0 0.00 2.69 1.27 56 1013.0
20260506165849 16 321 0.0 0.0 0.00 2.69 1.27 60 1013.0
20260506165351 16 288 0.0 0.0 0.00 2.69 1.27 61 1013.1
20260506164851 16 294 0.0 0.0 0.00 2.69 1.27 61 1013.2
20260506164351 16 108 0.0 0.0 0.00 2.69 1.27 60 1013.2
20260506163853 16 261 0.0 0.0 0.00 2.69 1.27 59 1013.1
20260506163355 16 101 0.0 0.0 0.00 2.69 1.27 58 1013.1
20260506162913 16 273 0.0 0.0 0.00 2.69 1.27 58 1013.1
20260506162414 16 97 0.0 0.0 0.00 2.69 1.27 59 1013.1
20260506161836 16 251 0.0 0.0 0.00 2.69 1.27 62 1013.1
20260506161416 15 106 0.0 0.0 0.00 2.69 1.27 62 1013.0
20260506160854 15 325 0.0 0.0 0.00 2.69 1.27 63 1013.0
20260506160415 15 268 0.0 0.0 0.00 2.69 1.27 66 1012.9
20260506155852 15 280 0.0 0.0 0.00 2.69 1.27 68 1013.0
20260506155415 15 77 0.0 0.0 0.00 2.69 1.27 66 1013.0
20260506154855 15 77 0.0 0.0 0.00 2.69 1.27 62 1013.0
20260506154356 15 326 0.0 0.0 0.00 2.69 1.27 65 1012.9
20260506153856 15 116 0.0 0.0 0.00 2.69 1.27 67 1013.0
20260506153337 15 9 0.0 0.0 0.00 2.69 1.27 68 1013.2
20260506152835 15 317 0.0 0.0 0.00 2.69 1.27 67 1013.2
20260506152354 15 30 0.0 0.0 0.00 2.69 1.27 68 1013.2
20260506151836 14 32 0.0 0.0 0.00 2.69 1.27 70 1013.1
20260506151339 14 308 0.0 0.0 0.00 2.69 1.27 69 1013.0
20260506150840 14 309 0.0 0.0 0.00 2.69 1.27 76 1012.7
20260506150340 13 308 0.0 0.0 0.00 2.69 1.27 71 1012.4
20260506145837 13 110 0.0 0.0 0.00 2.69 1.27 74 1012.4
20260506145341 13 315 0.0 0.0 0.00 2.69 1.27 78 1012.3
20260506144844 12 315 0.0 0.0 0.00 2.69 1.27 81 1012.2
20260506144344 12 351 0.0 0.0 0.00 2.69 1.27 81 1012.1
20260506143844 12 344 0.0 0.0 0.00 2.69 1.27 84 1012.1
20260506143346 11 344 0.0 0.0 0.00 2.69 1.27 86 1011.9
20260506142844 11 344 0.0 0.0 0.00 2.69 1.27 87 1011.9
20260506142341 11 344 0.0 0.0 0.00 2.69 1.27 87 1011.9
20260506141843 10 178 0.0 0.0 0.00 2.69 1.27 89 1012.1
20260506141345 10 340 0.0 0.0 0.00 2.69 1.27 91 1012.2
20260506140846 10 355 0.0 0.0 0.00 2.69 1.27 92 1012.0
20260506140347 10 355 0.0 0.0 0.00 2.69 1.27 92 1011.9
20260506135847 10 342 0.0 0.0 0.00 2.69 1.27 93 1011.9
20260506135409 9 225 0.0 0.0 0.00 2.69 1.27 93 1011.9
20260506134849 9 225 0.0 0.0 0.00 2.69 1.27 94 1011.8
20260506134353 9 200 0.0 0.0 0.00 2.69 1.27 94 1011.9
20260506133855 8 200 0.0 0.0 0.00 2.69 1.27 94 1012.1
20260506133356 8 200 0.0 0.0 0.00 2.69 1.27 94 1012.0
20260506132854 8 200 0.0 0.0 0.00 2.69 1.27 94 1011.9
20260506132338 8 200 0.0 0.0 0.00 2.69 1.27 95 1011.9
20260506131837 8 200 0.0 0.0 0.00 2.69 1.27 94 1011.6
20260506131340 8 200 0.0 0.0 0.00 2.69 1.27 95 1011.5
20260506130842 8 200 0.0 0.0 0.00 2.69 1.27 95 1011.7
20260506130403 8 200 0.0 0.0 0.00 2.69 1.27 95 1011.9
20260506125841 8 200 0.0 0.0 0.00 2.69 1.27 94 1011.6
20260506125343 8 202 0.0 0.0 0.00 2.69 1.27 95 1011.5
20260506124846 8 202 0.0 0.0 0.00 2.69 1.27 95 1011.3
20260506124348 8 202 0.0 0.0 0.00 2.69 1.27 95 1011.4
20260506123909 8 202 0.0 0.0 0.00 2.69 1.27 95 1011.2
20260506123350 7 202 0.0 0.0 0.00 2.69 1.27 95 1011.1
20260506122850 7 202 0.0 0.0 0.00 2.69 1.27 95 1011.0
20260506122408 7 202 0.0 0.0 0.00 2.69 1.27 95 1011.1
20260506121851 7 202 0.0 0.0 0.00 2.69 1.27 95 1011.0
20260506121351 7 202 0.0 0.0 0.00 2.69 1.27 95 1011.1
20260506120853 7 202 0.0 0.0 0.00 2.69 1.27 95 1010.9
20260506120354 7 202 0.0 0.0 0.00 2.69 1.27 95 1010.7
20260506115854 7 202 0.0 0.0 0.00 2.72 1.27 95 1010.8
20260506115336 7 5 0.0 0.0 0.00 2.72 1.27 95 1010.7
20260506114838 7 5 0.0 0.0 0.00 2.72 1.27 95 1010.6
20260506114400 7 5 0.0 0.0 0.00 2.72 1.27 95 1010.4
20260506113902 7 5 0.0 0.0 0.00 2.72 1.27 95 1010.1
20260506113359 6 5 0.0 0.0 0.00 2.72 1.27 95 1009.9
20260506112838 6 5 0.0 0.0 0.00 2.72 1.27 95 1009.7
20260506112358 6 5 0.0 0.0 0.00 2.72 1.27 95 1009.6
20260506111840 6 5 0.0 0.0 0.00 2.72 1.27 95 1009.7
20260506111341 6 5 0.0 0.0 0.00 2.72 1.27 95 1009.8
20260506110845 6 5 0.0 0.0 0.00 2.72 1.27 95 1009.8
20260506110346 7 5 0.0 0.0 0.00 2.72 1.27 95 1009.8
20260506105844 7 272 0.0 0.0 0.00 2.77 1.27 95 1010.0
20260506105347 7 272 0.0 0.0 0.00 2.77 1.27 95 1009.9
20260506104848 7 272 0.0 0.0 0.00 2.77 1.27 95 1009.6
20260506104349 7 272 0.0 0.0 0.00 2.77 1.27 95 1009.3
20260506103845 7 272 0.0 0.0 0.00 2.77 1.27 94 1009.5
20260506103346 7 272 0.0 0.0 0.00 2.77 1.27 94 1009.6
20260506102846 7 272 0.0 0.0 0.00 2.77 1.27 94 1010.0
20260506102348 7 272 0.0 0.0 0.00 2.77 1.27 94 1009.6
20260506101848 7 272 0.0 0.0 0.00 2.77 1.27 94 1008.7
20260506101352 7 272 0.0 0.0 0.00 2.77 1.27 94 1008.8
20260506100853 7 272 0.0 0.0 0.00 2.77 1.27 94 1008.9
20260506100354 7 272 0.0 0.0 0.00 2.77 1.27 94 1008.5
20260506095852 7 217 0.0 0.0 0.00 2.92 1.27 94 1008.8
20260506095354 7 217 0.0 0.0 0.00 2.92 1.27 94 1009.0
20260506094835 7 217 0.0 0.0 0.00 2.92 1.27 94 1008.9
20260506094338 7 217 0.0 0.0 0.00 2.92 1.27 94 1008.9
20260506093840 7 217 0.0 0.0 0.00 2.92 1.27 94 1008.7
20260506093342 7 217 0.0 0.0 0.00 2.92 1.27 94 1008.6
20260506092838 7 217 0.0 0.0 0.00 2.92 1.27 94 1008.5
20260506092358 7 179 0.0 0.0 0.00 2.92 1.27 94 1008.4
20260506091841 6 12 0.0 0.0 0.03 2.92 1.27 94 1008.2
20260506091403 6 12 0.0 0.0 0.03 2.92 1.27 94 1008.0
20260506090846 6 12 0.0 0.0 0.03 2.92 1.27 94 1008.2
20260506090350 6 85 0.0 0.0 0.03 2.92 1.27 94 1008.0
20260506085849 6 85 0.0 0.0 0.03 2.92 1.27 94 1008.0
20260506085351 6 85 0.0 1.6 0.05 2.92 1.27 94 1008.1
20260506084854 6 85 0.0 1.6 0.05 2.92 1.27 94 1008.2
20260506084353 6 346 0.0 0.0 0.05 2.92 1.27 94 1008.4